Tracking 25710 objects as of 5-Jul-2022
HD Live streaming from Space Station
objects crossing your sky now

STARLINK-1860

Track STARLINK-1860 now!
10-day predictions
STARLINK-1860 is classified as:


NORAD ID: 47147
Int'l Code: 2020-088AB
Perigee: 553.2 km
Apogee: 555.6 km
Inclination: 53.1 °
Period: 95.6 minutes
Semi major axis: 6925 km
RCS: Unknown
Launch date: November 25, 2020
Source: United States (US)
Launch site: AIR FORCE EASTERN TEST RANGE (AFETR)
aabbcc
Your satellite tracking list
Your tracking list is empty




NASA's NSSDC Master Catalog

Two Line Element Set (TLE):
1 47147U 20088AB  22185.76956194 -.00001908  00000-0 -10922-3 0  9993
2 47147  53.0515 214.7202 0001758  59.0209 301.0952 15.06390588 89280
Source of the keplerian elements: AFSPC